TimeEST,TemperatureF,Dew PointF,Humidity,Sea Level PressureIn,VisibilityMPH,Wind Direction,Wind SpeedMPH,Gust SpeedMPH,PrecipitationIn,Events,Conditions,WindDirDegrees,DateUTC
12:54 AM,64.0,59.0,84,30.01,7.0,SSW,4.6,-,0.03,Rain,Light Rain,210,2013-12-07 05:54:00
1:54 AM,63.0,59.0,87,30.01,10.0,South,3.5,-,0.00,,Mostly Cloudy,180,2013-12-07 06:54:00
2:31 AM,64.4,59.0,83,30.05,10.0,West,4.6,-,0.00,Rain,Light Rain,260,2013-12-07 07:31:00
2:40 AM,64.4,60.8,88,30.05,10.0,Calm,Calm,-,0.00,,Overcast,0,2013-12-07 07:40:00
2:54 AM,64.0,60.1,87,30.02,10.0,Calm,Calm,-,0.00,,Overcast,0,2013-12-07 07:54:00
3:54 AM,64.0,60.1,87,30.03,10.0,WSW,3.5,-,N/A,,Overcast,240,2013-12-07 08:54:00
4:54 AM,63.0,59.0,87,30.05,10.0,WSW,4.6,-,N/A,,Overcast,240,2013-12-07 09:54:00
5:54 AM,62.1,57.0,84,30.07,10.0,WNW,5.8,-,N/A,,Overcast,290,2013-12-07 10:54:00
6:54 AM,61.0,57.0,87,30.12,10.0,Calm,Calm,-,N/A,,Overcast,0,2013-12-07 11:54:00
7:54 AM,61.0,57.0,87,30.14,9.0,Calm,Calm,-,N/A,,Overcast,0,2013-12-07 12:54:00
8:08 AM,60.8,57.2,88,30.17,8.0,Calm,Calm,-,N/A,,Overcast,0,2013-12-07 13:08:00
8:13 AM,60.8,57.2,88,30.17,7.0,Calm,Calm,-,N/A,,Overcast,0,2013-12-07 13:13:00
8:24 AM,60.8,57.2,88,30.17,5.0,East,3.5,-,N/A,,Overcast,80,2013-12-07 13:24:00
8:54 AM,60.1,55.0,83,30.18,10.0,East,4.6,-,N/A,,Overcast,100,2013-12-07 13:54:00
9:18 AM,59.0,53.6,82,30.21,10.0,ESE,3.5,-,N/A,,Overcast,110,2013-12-07 14:18:00
9:54 AM,60.1,52.0,75,30.22,10.0,Calm,Calm,-,N/A,,Overcast,0,2013-12-07 14:54:00
10:54 AM,61.0,52.0,72,30.22,10.0,Calm,Calm,-,N/A,,Overcast,0,2013-12-07 15:54:00
11:54 AM,64.0,51.1,63,30.21,10.0,NE,4.6,-,N/A,,Overcast,50,2013-12-07 16:54:00
12:03 PM,64.4,51.8,64,30.23,10.0,Variable,3.5,-,N/A,,Overcast,0,2013-12-07 17:03:00
12:32 PM,64.4,48.2,56,30.22,10.0,East,3.5,-,N/A,,Overcast,100,2013-12-07 17:32:00
12:54 PM,64.9,46.9,52,30.20,10.0,ENE,5.8,-,N/A,,Overcast,60,2013-12-07 17:54:00
1:54 PM,63.0,46.9,56,30.20,10.0,ESE,5.8,-,N/A,,Overcast,110,2013-12-07 18:54:00
2:54 PM,62.1,48.0,60,30.20,10.0,East,5.8,-,N/A,,Overcast,80,2013-12-07 19:54:00
3:54 PM,60.1,51.1,72,30.22,10.0,ESE,8.1,-,N/A,,Overcast,110,2013-12-07 20:54:00
4:54 PM,59.0,48.0,67,30.24,10.0,East,9.2,-,N/A,,Overcast,90,2013-12-07 21:54:00
5:54 PM,57.0,46.9,69,30.27,10.0,ESE,4.6,-,N/A,,Overcast,110,2013-12-07 22:54:00
6:54 PM,55.9,45.0,67,30.29,10.0,East,6.9,-,N/A,,Overcast,90,2013-12-07 23:54:00
7:06 PM,55.4,44.6,67,30.30,10.0,East,10.4,16.1,N/A,,Overcast,80,2013-12-08 00:06:00
7:54 PM,55.0,44.1,67,30.31,10.0,East,10.4,-,N/A,,Overcast,80,2013-12-08 00:54:00
8:02 PM,55.4,42.8,63,30.33,10.0,East,6.9,-,N/A,,Overcast,90,2013-12-08 01:02:00
8:54 PM,54.0,42.1,64,30.33,10.0,East,9.2,-,N/A,,Overcast,90,2013-12-08 01:54:00
9:39 PM,53.6,41.0,62,30.36,10.0,East,6.9,-,N/A,,Overcast,100,2013-12-08 02:39:00
9:54 PM,54.0,42.1,64,30.35,10.0,East,5.8,-,N/A,,Overcast,90,2013-12-08 02:54:00
10:11 PM,53.6,42.8,67,30.36,10.0,East,5.8,-,N/A,,Overcast,100,2013-12-08 03:11:00
10:54 PM,53.1,42.1,66,30.35,10.0,East,6.9,-,N/A,,Overcast,90,2013-12-08 03:54:00
11:54 PM,51.1,42.1,71,30.35,10.0,East,9.2,-,0.01,Rain,Light Rain,80,2013-12-08 04:54:00